Location: Tucson
(32.2217°N, 110.9265°W)
Time: 12:28:36
(UTC-07:00)

Tiangong 1 - Visible Passes

Search period start: 21 September 2017 00:00
Search period end: 01 October 2017 00:00
Orbit: 303 x 329 km, 42.8° (Epoch: 21 September)

Date Brightness Start Highest point End Pass type
(mag) Time Alt. Az. Time Alt. Az. Time Alt. Az.
21 Sep 3.4 05:33:26 10° NNW 05:34:53 13° NNE 05:36:22 10° NE visible
22 Sep 2.8 05:46:35 10° NNW 05:48:47 22° NNE 05:50:59 10° ENE visible
23 Sep 3.8 04:27:13 12° NNE 04:27:13 12° NNE 04:28:00 10° NE visible
24 Sep 3.0 04:40:24 18° NNE 04:40:35 19° NNE 04:42:35 10° ENE visible
25 Sep 1.8 04:53:36 33° N 04:54:07 37° NNE 04:56:38 10° E visible
26 Sep 0.5 05:06:52 49° W 05:07:25 71° SSW 05:10:03 10° SE visible
27 Sep 2.0 05:20:11 21° SW 05:20:30 22° SW 05:22:39 10° SSE visible
